COSMOS 1275 DEB, 12736

Orbit data source: Space-Track

COSMOS 1275 DEB, 12736 is space debris in LEO originally from a launch on Thu, 04 Jun 1981 UTC launched from the Plesetsk Missile And Space Complex (PKMTR). Debris objects in space refer to the collection of defunct objects orbiting the Earth. Examples of debris include non-operational satellites, rocket bodies, and fragments generated from explosions, collisions, or faulty payload assembly.

Loading next visibility...
Identifier
12736, 1981-053CD
Orbit
LEO
Country
Flag of CISCIS
Related business
Manufacturer
Unknown
Mission
Spacecraft
Bus & Motor
Unknown
Mass
Unknown
Launch date (UTC)
1981-06-04 (45 years ago)
Launch vehicle
Unknown
Launch site
Plesetsk Missile And Space Complex (PKMTR)
Object type
Payload
Rocket body
Debris
Shape & HBR
Unknown shape, 0.1 m
Radar Cross Section
Small (<0.1 m²)

Expand to show TLE details & history
Last TLE update: 16 hours ago

TLE from 16 hours ago
0 COSMOS 1275 DEB
1 12736U 81053CD  26119.50752466  .00000387  00000-0  48895-3 0  9995
2 12736  83.0267 136.7686 0132306  38.4143  84.4929 13.57686350208811
Epoch: 2026-04-29T12:10Z
TLE epoch observation values (Epoch: 2026-04-29T12:10:50.130Z)
Latitude
55.064°
Longitude
-93.4394°
Altitude
1,045.086 km
Speed
7.339 km/s
True Right ascension
20h 26m 56s
True Declination
54° 54' 31"
Sunlit
Object was in daylight at epoch
Visualization orbit readout
Latitude
Unknown
Longitude
Unknown
Altitude
Unknown
Speed
Unknown
Apparent Right ascension
Unknown
Apparent Declination
Unknown
Sunlit
N/A
Visualization observer readout
Local Sidereal Time
11:14:52
Azimuth
Unknown
Elevation
Unknown
Doppler factor
Unknown
Orbital elements
Apogee altitude
1,139.445 km
Perigee altitude
943.118 km
Semi-major axis
7,419.418 km
Eccentricity
0.01323
Inclination
83.0267°
RAAN
136.7686°
Arg. of periapsis
38.4143°
True anomaly
86.00424°
Mean anomaly
84.4929°
Eccentric anomaly
85.24835°
Mean motion
3.39616 °/min
Orbital period
106 mins
BSTAR
0.00048895
Loading maneuver chart data...
Computing Atmospheric mass density...

Documentation

Showing up to 5 results
|